Location: Comstock Ranch
(38.0499°N, 120.2627°W)
Time: 21:31:09
(UTC+00:00)

SL-16 R/B - Pass Details

Date: 08 September 2024
Orbit: 842 x 845 km, 71.0° (Epoch: 11 October)

Event Time Altitude Azimuth Distance (km) Brightness Sun altitude
Rises 12:55:51 0° 323° (NW) 3,409 5.1 -8.9°
Reaches altitude 10° 12:58:45 10° 310° (NW) 2,469 4.3 -8.3°
Maximum altitude 13:03:07 23° 259° (W) 1,704 3.2 -7.5°
Drops below altitude 10° 13:07:29 10° 208° (SSW) 2,457 4.2 -6.6°
Sets 13:10:22 0° 194° (SSW) 3,387 5.1 -6.1°
